Location: Pinon Hills
(34.4429°N, 117.6403°W)
Time: 07:44:00
(UTC-07:00)

Daily predictions for brighter satellites

Satellite Brightness Start Highest point End
(mag) Time Altitude Azimuth Time Altitude Azimuth Time Altitude Azimuth
OAO 3 Copernicus 4.4 18:59:24 10° W 19:04:30 83° N 19:09:34 10° E
Cosmos 2228 3.0 19:03:19 10° S 19:07:38 65° E 19:11:55 10° NNE
ISS -3.9 19:05:28 10° SW 19:08:42 69° SE 19:11:57 10° NE
Cosmos 2298 Rocket 4.2 19:04:39 10° NNW 19:10:01 86° WSW 19:15:20 10° SSE
Milstar 3 Cent rocket 3.2 19:08:58 10° SW 19:14:52 33° S 19:19:07 10° ESE
Meteor 2-5 Rocket 3.8 19:09:30 10° N 19:15:18 66° E 19:20:55 10° SSE
ALOS 2.3 19:12:15 10° SSE 19:16:49 57° ENE 19:21:24 10° N
Cosmos 2181 Rocket 4.0 19:11:45 10° N 19:17:56 87° E 19:24:03 10° S
Centaur D AC-29 3.5 18:56:39 10° WSW 19:19:13 38° S 19:24:06 11° ESE
YAOGAN 1 4.3 19:17:38 10° SSW 19:21:38 37° W 19:25:40 10° NNW
Cosmos 2074 Rocket 4.0 19:16:59 10° S 19:23:03 62° E 19:29:10 10° NNE
FREGAT/IRIS 3.1 19:24:49 10° SE 19:27:37 36° ENE 19:30:27 10° N
Cosmos 1812 Rocket 4.2 19:26:40 10° SSE 19:30:41 34° E 19:34:43 10° NNE
Cosmos 1805 3.9 19:28:27 10° SSE 19:31:57 32° E 19:35:27 10° NNE
FALCON 9 R/B 1.0 19:29:44 10° W 19:32:16 88° N 19:36:10 16° E
Cosmos 2082 Rocket 3.9 19:34:47 10° SE 19:35:36 12° SE 19:35:36 12° SE
ATLAS 5 CENTAUR R/B 3.1 19:37:00 10° SSE 19:39:22 17° ESE 19:39:22 17° ESE
CZ-2D R/B 4.5 19:39:25 20° E 19:40:14 22° ENE 19:43:13 10° NNE
Resurs 01 Rocket 2.9 19:39:30 19° E 19:40:32 20° ENE 19:43:48 10° NNE
Cosmos 2058 Rocket 4.4 19:36:33 10° SSW 19:40:42 44° W 19:44:54 10° N
Cosmos 1943 Rocket 4.2 19:36:41 10° NW 19:41:29 30° WSW 19:46:19 10° SSW
GP-B 4.0 19:39:47 10° NNE 19:43:36 27° E 19:46:26 15° SE
Thor Agena Rocket 3.8 19:39:03 10° N 19:44:16 73° WNW 19:49:23 10° SSW
BREEZE-M DEB (TANK) 3.1 19:44:17 10° SSW 19:46:33 24° SSE 19:46:33 24° SSE
USA 234 3.5 19:40:50 10° SE 19:47:20 69° SW 19:53:53 10° NW
Meteor 2-19 Rocket 4.4 19:44:19 10° S 19:50:14 59° E 19:56:11 10° NNE
Cosmos 783 Rocket 4.5 19:46:47 10° S 19:51:53 58° ESE 19:56:59 10° NNE
Cosmos 1900 4.4 19:49:52 10° SSW 19:54:56 85° WNW 20:00:07 10° NNE
Nadezhda 3 Rocket 4.2 19:50:59 10° N 19:56:58 45° E 20:02:33 11° SSE
Cosmos 372 Rocket 4.1 19:52:34 10° N 19:57:45 56° ENE 20:01:24 19° SE
Cosmos 1356 3.7 19:55:14 10° N 19:58:35 42° E 19:58:50 42° E
ORS 1 (USA 231) 4.2 19:56:30 10° WNW 19:59:26 78° NNE 19:59:46 65° E
Cosmos 1125 Rocket 3.4 19:57:57 10° NNW 20:03:16 73° ENE 20:07:41 15° SSE
Geosat 3.9 19:59:34 10° SSE 20:04:33 89° SW 20:09:37 10° NNW
Envisat 3.6 20:04:28 31° E 20:05:11 33° ENE 20:09:41 10° N
Cosmos 2285 Rocket 4.3 19:59:40 10° S 20:05:37 42° E 20:11:38 10° NNE
OAO 3 Rocket 4.0 20:01:50 10° SW 20:06:09 32° SSE 20:06:50 31° SE
Meteor 1-24 Rocket 4.1 20:02:24 10° NNW 20:08:16 68° W 20:13:53 10° S
Cosmos 1544 4.3 20:05:41 10° SSW 20:09:06 42° W 20:12:34 10° N
Yuri Rocket 3.8 20:04:54 10° WSW 20:09:25 38° S 20:10:29 32° SSE
H-2A R/B 3.1 20:05:52 10° S 20:09:31 62° W 20:13:15 10° NNW
SJ-6B 3.0 20:08:04 10° S 20:12:03 70° WSW 20:15:59 10° NNW
Gbstr 26 Del rocket 3.8 20:08:11 10° SSW 20:12:43 44° SE 20:13:44 39° E
Cosmos 1953 2.1 20:13:56 10° S 20:17:57 73° E 20:22:00 10° N
SL-27 R/B 3.7 20:17:56 10° SW 20:21:22 42° WNW 20:24:51 10° N
SL-8 Rocket 4.3 20:23:08 40° E 20:23:08 40° E 20:28:32 10° NNE
ATLAS 2AS CENTAUR R/B 3.7 20:19:46 10° NNW 20:26:42 31° NE 20:28:02 30° ENE
Cosmos 292 Rocket 4.3 20:25:59 10° SSW 20:30:46 61° WNW 20:35:35 10° N
Cosmos 1674 4.0 20:33:35 10° N 20:35:35 30° N 20:35:35 30° N
SJ 16-02 1.5 20:34:17 10° NNW 20:38:38 69° WSW 20:39:03 64° SW
NOSS 3-3 (A) 3.8 20:36:24 10° SSW 20:42:20 67° ESE 20:43:27 56° ENE
NOSS 3-3 (C) 3.8 20:36:30 10° SSW 20:42:26 66° ESE 20:43:20 59° ENE
ISS -0.9 20:43:43 10° WNW 20:45:29 14° NNW 20:45:56 13° NNW
Resurs 1-3 3.9 20:48:03 66° WNW 20:48:03 66° WNW 20:52:02 10° NNW
OAO 3 Copernicus 4.4 20:44:02 10° W 20:48:41 69° SW 20:48:41 69° SW
Cosmos 1833 Rocket 4.1 20:49:13 10° SSW 21:01:49 - NNE 20:51:29 25° SSW
ATLAS CENTAUR R/B 4.0 20:50:10 10° NW 20:58:02 31° WSW 20:59:52 23° SW
Cosmos 2369 4.0 20:53:34 10° NNW 20:58:05 54° NNE 20:58:05 54° NNE
Spot 2 Rocket 4.3 21:11:25 47° W 21:11:25 47° W 21:16:16 10° NNW
Resurs 01 Rocket 3.4 21:17:06 29° W 21:17:06 29° W 21:20:40 10° NW
Cosmos 2082 Rocket 3.9 21:15:47 10° SSW 21:27:22 - NNE 21:17:43 22° SW
ATLAS 5 CENTAUR R/B 4.0 21:19:50 10° SW 21:21:05 18° WSW 21:21:05 18° WSW
Cosmos 1980 Rocket 4.4 21:46:51 10° NNW 21:48:11 17° N 21:48:11 17° N
ATLAS 2AS CENTAUR R/B 4.0 22:10:28 10° NW 22:15:30 40° WNW 22:15:30 40° WNW
